Preston, MN

3:26 AM CST on January 21, 2018 (GMT -0600)
Preston

Weather History for KFKA - April, 2013

Change the Weather History Date:

Friday, April 5, 2013

  Actual Average (KRST) Record (KRST)
Temperature  
Mean Temperature 36 °F -  
Max Temperature 43 °F 50 °F 83 °F (1991)
Min Temperature 29 °F 29 °F 7 °F (1887)
Degree Days  
Heating Degree Days 29    
Moisture  
Dew Point 26 °F    
Average Humidity 69    
Maximum Humidity 92    
Minimum Humidity 42    
Precipitation  
Precipitation 0.01 in - - ()
Sea Level Pressure  
Sea Level Pressure 30.12 in    
Wind  
Wind Speed 8 mph (East)    
Max Wind Speed 14 mph    
Max Gust Speed 20 mph    
Visibility 10 miles    
Events Rain    
Averages and records for this station are not official NWS values.
T = Trace of Precipitation, MM = Missing Value Source: NWS Daily Summary

Daily Weather History Graph

Daily Weather History Graph

Search for Another Location

Airport or City:

Trip Planner

Search our weather history database for the weather conditions in past years. The results will help you decide how hot, cold, wet, or windy it might be!

Date:

Astronomy

Apr. 05, 2013 Rise Set
Actual Time 6:42 AM CDT 7:40 PM CDT
Civil Twilight 6:13 AM CDT 8:09 PM CDT
Nautical Twilight 5:38 AM CDT 8:44 PM CDT
Astronomical Twilight 5:02 AM CDT 9:21 PM CDT
Moon 3:59 AM CDT (4/5) 2:57 PM CDT (4/5)
Length of Visible Light 13h 56m
Length of Day
12h 57m
Waning Crescent, 23% of the Moon is Illuminated
Apr 5
Waning Crescent
Apr 10
New
Apr 18
First Quarter
Apr 25
Full
May 2
Last Quarter

Hourly Weather History & Observations

Time (CDT) Temp. Windchill Dew Point Humidity Pressure Visibility Wind Dir Wind Speed Gust Speed Precip Events Conditions
12:17 AM 33.1 °F 26.1 °F 27.9 °F 81% 30.12 in 10.0 mi NNW 8.1 mph - N/A   Clear
12:37 AM 33.3 °F 27.1 °F 27.5 °F 79% 30.13 in 10.0 mi NNW 6.9 mph - N/A   Clear
12:57 AM 33.3 °F 27.1 °F 27.1 °F 78% 30.13 in 10.0 mi NNW 6.9 mph - N/A   Clear
1:17 AM 33.3 °F 26.4 °F 26.2 °F 75% 30.14 in 10.0 mi North 8.1 mph - N/A   Clear
1:37 AM 33.3 °F 27.1 °F 25.5 °F 73% 30.14 in 10.0 mi NNW 6.9 mph - N/A   Clear
1:57 AM 32.9 °F 26.7 °F 25.3 °F 74% 30.14 in 10.0 mi North 6.9 mph - N/A   Clear
2:17 AM 32.4 °F 26.0 °F 25.2 °F 75% 30.14 in 10.0 mi North 6.9 mph - N/A   Clear
2:37 AM 32.2 °F 27.7 °F 24.6 °F 74% 30.14 in 10.0 mi North 4.6 mph - N/A   Clear
2:57 AM 32.0 °F 26.4 °F 24.4 °F 74% 30.15 in 10.0 mi North 5.8 mph - N/A   Clear
3:17 AM 31.5 °F 26.8 °F 24.6 °F 76% 30.15 in 10.0 mi North 4.6 mph - N/A   Clear
3:37 AM 30.9 °F 25.2 °F 24.4 °F 77% 30.15 in 10.0 mi North 5.8 mph - N/A   Clear
3:57 AM 30.9 °F 25.2 °F 23.9 °F 75% 30.16 in 10.0 mi North 5.8 mph - N/A   Clear
4:16 AM 30.7 °F 23.3 °F 23.9 °F 76% 30.16 in 10.0 mi North 8.1 mph - N/A   Clear
4:37 AM 30.2 °F 24.3 °F 23.9 °F 77% 30.16 in 10.0 mi North 5.8 mph - N/A   Clear
4:57 AM 30.0 °F 24.1 °F 23.7 °F 77% 30.17 in 10.0 mi North 5.8 mph - N/A   Clear
5:17 AM 29.7 °F 22.8 °F 23.4 °F 77% 30.18 in 10.0 mi North 6.9 mph - N/A   Clear
5:37 AM 29.7 °F 24.7 °F 23.0 °F 76% 30.18 in 10.0 mi North 4.6 mph - N/A   Clear
5:56 AM 29.3 °F 22.3 °F 22.6 °F 76% 30.18 in 10.0 mi North 6.9 mph - N/A   Clear
6:17 AM 29.7 °F 22.8 °F 21.9 °F 73% 30.19 in 10.0 mi North 6.9 mph - N/A   Clear
6:37 AM 29.3 °F 23.2 °F 21.4 °F 72% 30.19 in 10.0 mi North 5.8 mph - N/A   Clear
6:57 AM 29.8 °F 22.2 °F 21.2 °F 70% 30.19 in 10.0 mi NNE 8.1 mph - N/A   Clear
7:17 AM 30.0 °F 22.4 °F 21.0 °F 69% 30.20 in 10.0 mi NNE 8.1 mph - N/A   Clear
7:37 AM 30.2 °F 25.4 °F 21.0 °F 69% 30.21 in 10.0 mi NNE 4.6 mph - N/A   Clear
7:57 AM 30.6 °F 23.8 °F 21.2 °F 68% 30.21 in 10.0 mi NE 6.9 mph - N/A   Clear
8:17 AM 31.8 °F 25.4 °F 21.6 °F 66% 30.21 in 10.0 mi NE 6.9 mph - N/A   Clear
8:37 AM 32.0 °F 25.6 °F 21.2 °F 64% 30.21 in 10.0 mi NE 6.9 mph - N/A   Clear
8:57 AM 32.7 °F 24.5 °F 21.7 °F 64% 30.21 in 10.0 mi East 10.4 mph - N/A   Clear
9:17 AM 33.3 °F 25.7 °F 21.0 °F 61% 30.21 in 10.0 mi East 9.2 mph - N/A   Clear
9:37 AM 34.3 °F 29.2 °F 21.0 °F 58% 30.22 in 10.0 mi ESE 5.8 mph - N/A   Clear
9:57 AM 35.2 °F 28.1 °F 21.6 °F 58% 30.21 in 10.0 mi ESE 9.2 mph - N/A   Clear
10:17 AM 35.8 °F 29.4 °F 22.1 °F 58% 30.20 in 10.0 mi East 8.1 mph - N/A   Clear
10:37 AM 37.0 °F 31.6 °F 22.6 °F 56% 30.20 in 10.0 mi SSE 6.9 mph - N/A   Clear
10:57 AM 37.4 °F 30.8 °F 22.1 °F 54% 30.20 in 10.0 mi ESE 9.2 mph - N/A   Clear
11:17 AM 38.1 °F 32.9 °F 22.6 °F 54% 30.20 in 10.0 mi SE 6.9 mph - N/A   Clear
11:37 AM 39.2 °F 34.2 °F 22.8 °F 52% 30.20 in 10.0 mi SE 6.9 mph - N/A   Clear
11:57 AM 39.7 °F 34.3 °F 21.9 °F 49% 30.21 in 10.0 mi SSE 8.1 mph - N/A   Clear
12:17 PM 41.0 °F 35.8 °F 22.1 °F 47% 30.20 in 10.0 mi ESE 8.1 mph - N/A   Clear
12:37 PM 41.2 °F 38.2 °F 21.6 °F 46% 30.19 in 10.0 mi East 4.6 mph - N/A   Clear
12:58 PM 41.9 °F 35.9 °F 22.3 °F 46% 30.18 in 10.0 mi SSE 10.4 mph - N/A   Clear
1:17 PM 42.8 °F 38.6 °F 21.2 °F 42% 30.17 in 10.0 mi ESE 6.9 mph - N/A   Scattered Clouds
1:37 PM 43.2 °F 37.9 °F 22.3 °F 44% 30.16 in 10.0 mi SE 9.2 mph - N/A   Mostly Cloudy
1:57 PM 43.2 °F 37.4 °F 23.2 °F 45% 30.14 in 10.0 mi ESE 10.4 mph - N/A   Mostly Cloudy
2:17 PM 42.6 °F 37.8 °F 23.7 °F 47% 30.14 in 10.0 mi SSE 8.1 mph - N/A   Overcast
2:37 PM 42.4 °F 37.0 °F 23.7 °F 48% 30.13 in 10.0 mi SSE 9.2 mph - N/A   Overcast
2:57 PM 42.8 °F 38.0 °F 24.4 °F 48% 30.14 in 10.0 mi SE 8.1 mph - N/A   Overcast
3:17 PM 42.4 °F 40.7 °F 24.3 °F 49% 30.14 in 10.0 mi SSE 3.5 mph - N/A   Overcast
3:37 PM 41.9 °F 40.0 °F 24.4 °F 50% 30.13 in 10.0 mi SW 3.5 mph - N/A   Overcast
3:57 PM 40.6 °F 34.8 °F 25.7 °F 55% 30.13 in 10.0 mi SSE 9.2 mph 17.3 mph N/A   Overcast
4:17 PM 40.6 °F 34.8 °F 26.2 °F 57% 30.12 in 10.0 mi SSE 9.2 mph - N/A   Overcast
4:37 PM 38.5 °F 32.7 °F 28.8 °F 68% 30.12 in 10.0 mi SE 8.1 mph 18.4 mph N/A   Light Drizzle
4:57 PM 38.3 °F 32.5 °F 29.5 °F 71% 30.11 in 10.0 mi SE 8.1 mph - N/A   Overcast
5:17 PM 37.0 °F 29.3 °F 31.3 °F 80% 30.10 in 5.0 mi ESE 11.5 mph 16.1 mph N/A Rain Light Rain
5:37 PM 35.6 °F 28.0 °F 32.0 °F 87% 30.10 in 7.0 mi ESE 10.4 mph - N/A Rain Light Rain
5:57 PM 35.1 °F 26.4 °F 32.0 °F 89% 30.08 in 7.0 mi East 12.7 mph - 0.01 in Rain Light Rain
6:17 PM 34.9 °F 26.6 °F 32.4 °F 91% 30.07 in 7.0 mi East 11.5 mph - N/A Rain Light Rain
6:37 PM 34.7 °F 26.4 °F 32.4 °F 91% 30.05 in 10.0 mi East 11.5 mph - N/A   Overcast
6:57 PM 34.9 °F 25.7 °F 32.9 °F 92% 30.04 in 10.0 mi ESE 13.8 mph 19.6 mph N/A   Overcast
7:17 PM 35.1 °F 26.4 °F 32.5 °F 91% 30.04 in 10.0 mi ESE 12.7 mph 16.1 mph N/A   Overcast
7:37 PM 35.2 °F 26.6 °F 32.2 °F 89% 30.01 in 10.0 mi ESE 12.7 mph - N/A   Overcast
7:57 PM 35.6 °F 26.6 °F 32.0 °F 87% 29.99 in 10.0 mi ESE 13.8 mph - N/A   Overcast
8:17 PM 36.3 °F 28.4 °F 32.0 °F 84% 30.00 in 10.0 mi ESE 11.5 mph - N/A   Overcast
8:37 PM 36.5 °F 28.7 °F 32.0 °F 84% 29.99 in 10.0 mi ESE 11.5 mph 18.4 mph N/A   Overcast
8:57 PM 36.5 °F 28.7 °F 31.8 °F 83% 29.99 in 10.0 mi SE 11.5 mph 18.4 mph N/A   Overcast
9:17 PM 37.4 °F 30.3 °F 31.1 °F 78% 30.00 in 10.0 mi ESE 10.4 mph - N/A   Overcast
9:37 PM 37.2 °F 30.0 °F 30.9 °F 78% 30.00 in 10.0 mi East 10.4 mph - N/A   Overcast
9:57 PM 37.4 °F 30.8 °F 30.9 °F 77% 29.99 in 10.0 mi East 9.2 mph - N/A   Overcast
10:17 PM 37.8 °F 29.8 °F 30.2 °F 74% 29.98 in 10.0 mi ESE 12.7 mph - N/A   Overcast
10:37 PM 37.8 °F 30.7 °F 30.2 °F 74% 29.98 in 10.0 mi ESE 10.4 mph - N/A   Overcast
10:57 PM 37.8 °F 31.3 °F 29.7 °F 73% 29.97 in 10.0 mi ESE 9.2 mph - N/A   Overcast
11:17 PM 37.8 °F 30.7 °F 29.8 °F 73% 29.95 in 10.0 mi ESE 10.4 mph - N/A   Overcast
11:37 PM 37.9 °F 30.0 °F 29.1 °F 71% 29.94 in 10.0 mi ESE 12.7 mph - N/A   Overcast
11:57 PM 38.7 °F 31.8 °F 28.4 °F 67% 29.94 in 10.0 mi ESE 10.4 mph - N/A   Overcast